Del Bajio, Mexico

2:02 AM CDT on August 21, 2017 (GMT -0500)
De Guanajuato International

Weather History for MMLO - September, 2012

Change the Weather History Date:

Sunday, September 16, 2012

  Actual Average Record
Temperature  
Mean Temperature 71 °F -  
Max Temperature 82 °F 79 °F 87 °F (2004)
Min Temperature 60 °F 57 °F 51 °F (2001)
Cooling Degree Days 6    
Growing Degree Days 21 (Base 50)    
Moisture  
Dew Point 60 °F    
Average Humidity 79    
Maximum Humidity 100    
Minimum Humidity 42    
Precipitation  
Precipitation 0.00 in - - ()
Sea Level Pressure  
Sea Level Pressure 30.14 in    
Wind  
Wind Speed 2 mph ()    
Max Wind Speed 12 mph    
Max Gust Speed -    
Visibility 7.8 miles    
Events Rain    
Averages and records for this station are not official NWS values.
T = Trace of Precipitation, MM = Missing Value Source: Averaged Metar Reports

Daily Weather History Graph

Daily Weather History Graph

Search for Another Location

Airport or City:

Trip Planner

Search our weather history database for the weather conditions in past years. The results will help you decide how hot, cold, wet, or windy it might be!

Date:

Astronomy

Sep. 16, 2012 Rise Set
Actual Time 7:33 AM CDT 7:47 PM CDT
Civil Twilight 7:11 AM CDT 8:09 PM CDT
Nautical Twilight 6:45 AM CDT 8:35 PM CDT
Astronomical Twilight 6:19 AM CDT 9:01 PM CDT
Moon 8:02 AM CDT (9/16) 8:10 PM CDT (9/16)
Length of Visible Light 12h 58m
Length of Day
12h 13m
New Moon, 0% of the Moon is Illuminated
Sep 16
New Moon
Sep 22
First Quarter
Sep 29
Full
Oct 8
Last Quarter
Oct 15
New

Hourly Weather History & Observations

Time (CDT) Temp. Heat Index Dew Point Humidity Pressure Visibility Wind Dir Wind Speed Gust Speed Precip Events Conditions
1:50 AM 64.4 °F - 53.6 °F 68% 30.30 in 8.0 mi Calm Calm - N/A   Mostly Cloudy
2:48 AM 62.6 °F - 51.8 °F 68% 30.30 in 8.0 mi Calm Calm - N/A   Mostly Cloudy
3:50 AM 62.6 °F - 57.2 °F 82% 29.92 in 6.0 mi Calm Calm - N/A Rain Light Rain
4:50 AM 62.6 °F - 62.6 °F 100% 30.30 in 4.0 mi WSW 6.9 mph - N/A Rain Rain
6:51 AM 60.8 °F - 60.8 °F 100% 29.95 in 6.0 mi Calm Calm - N/A Rain Light Rain
7:50 AM 60.8 °F - 59.0 °F 94% 30.30 in 5.0 mi Calm Calm - N/A   Overcast
8:52 AM 60.8 °F - 60.8 °F 100% 30.29 in 6.0 mi Calm Calm - N/A   Mostly Cloudy
9:49 AM 64.4 °F - 64.4 °F 100% 30.01 in 5.0 mi Calm Calm - N/A   Mostly Cloudy
10:43 AM 69.8 °F - 64.4 °F 83% 30.32 in 7.0 mi Calm Calm - N/A   Mostly Cloudy
11:44 AM 69.8 °F - 62.6 °F 78% 30.29 in 8.0 mi Calm Calm - N/A   Mostly Cloudy
12:44 PM 71.6 °F - 59.0 °F 64% 29.93 in 9.0 mi Calm Calm - N/A   Mostly Cloudy
1:44 PM 75.2 °F - 57.2 °F 53% 30.27 in 10.0 mi West 6.9 mph - N/A   Mostly Cloudy
2:49 PM 78.8 °F - 57.2 °F 47% 30.24 in 10.0 mi West 9.2 mph - N/A   Mostly Cloudy
3:44 PM 80.6 °F 80.8 °F 57.2 °F 45% 29.76 in 10.0 mi WSW 3.5 mph - N/A   Mostly Cloudy
4:50 PM 82.4 °F 82.0 °F 57.2 °F 42% 30.18 in 10.0 mi West 9.2 mph - N/A   Mostly Cloudy
5:49 PM 75.2 °F - 57.2 °F 53% 30.18 in 10.0 mi NE 11.5 mph - N/A   Mostly Cloudy
6:50 PM 68.0 °F - 64.4 °F 88% 29.81 in 10.0 mi NE 8.1 mph - N/A   Mostly Cloudy
7:48 PM 66.2 °F - 62.6 °F 88% 30.18 in 10.0 mi Calm Calm - N/A   Mostly Cloudy
8:49 PM 66.2 °F - 59.0 °F 78% 30.21 in 8.0 mi NNW 9.2 mph - N/A   Mostly Cloudy
9:45 PM 64.4 °F - 64.4 °F 100% 29.90 in 6.0 mi Calm Calm - N/A   Drizzle
10:44 PM 62.6 °F - 62.6 °F 100% 30.24 in 8.0 mi Calm Calm - N/A   Mostly Cloudy
11:46 PM 64.4 °F - 64.4 °F 100% 30.27 in 8.0 mi Calm Calm - N/A   Mostly Cloudy